GFSSE_700_spd_132.txt.gz
Wind_Speed
17 14 7 1 5 9 10 10 11 13 15 16 18 19 18 19 19 18 18 13 10 10 9 9 10 11 13 13 13 12 10 10 7 8 12 16 12 8 8 6 3 9 8
10 12 4 1 5 8 11 11 12 13 14 14 14 17 18 19 20 20 14 11 9 9 8 10 11 13 14 13 13 12 12 11 8 8 5 1 13 12 11 10 10 9 8
13 8 2 2 4 7 9 11 12 11 10 10 11 12 15 16 16 13 10 9 8 9 9 9 11 13 14 14 12 11 12 9 8 2 7 17 12 12 12 11 9 7 7
12 4 1 3 6 7 9 10 10 10 9 8 8 9 11 12 11 10 9 9 9 9 8 9 11 12 13 13 12 10 9 9 7 6 9 9 12 11 10 9 9 9 9
8 5 2 6 6 6 7 9 9 8 8 7 7 9 10 10 9 9 9 10 10 10 9 10 12 14 13 14 12 11 10 9 8 7 8 8 9 9 10 9 9 8 7
2 3 2 8 7 4 5 6 7 7 7 7 7 7 7 6 6 8 9 11 12 12 11 11 11 12 14 12 13 11 9 10 11 10 9 9 9 8 9 9 9 8 7
7 5 7 6 5 4 5 5 6 5 6 6 5 4 3 3 6 8 10 12 13 13 14 15 13 13 17 14 14 9 6 11 12 10 10 10 10 10 9 8 9 8 8
6 5 5 2 4 4 3 4 5 5 5 5 4 4 3 5 7 9 10 12 12 13 16 18 17 14 15 13 13 9 9 14 12 11 10 10 10 9 8 8 9 9 8
13 9 6 4 6 6 4 4 5 4 5 5 5 4 4 5 8 9 10 10 11 13 14 18 20 15 15 13 13 13 13 13 11 11 11 11 10 8 8 9 8 6 6
15 13 10 6 7 7 3 5 4 4 4 4 4 4 4 5 7 9 10 9 11 10 10 16 20 17 17 15 17 12 14 11 12 12 14 13 11 10 10 8 8 7 6
19 19 15 12 8 9 6 6 6 5 4 4 4 4 4 5 6 8 10 10 9 9 10 16 20 18 16 15 20 15 11 8 13 13 13 12 12 10 11 10 9 6 5
27 23 20 16 12 11 12 9 8 8 6 4 4 4 4 4 6 7 9 10 10 9 10 17 18 17 17 15 20 15 18 18 15 15 12 13 13 13 12 11 10 7 6
31 29 24 19 16 15 16 13 11 11 9 6 5 4 3 4 4 4 7 9 10 8 9 17 16 16 16 16 15 17 16 18 17 16 13 12 15 14 14 13 11 9 9
36 31 28 22 18 19 19 18 15 14 12 9 7 6 4 4 3 3 5 9 10 8 9 13 16 17 16 15 14 14 10 17 16 17 14 15 15 15 17 15 13 12 10
41 35 33 28 25 23 24 24 22 18 16 13 10 8 7 4 4 4 4 6 10 12 13 14 16 18 17 15 14 14 15 18 21 19 17 18 16 17 17 16 15 12 11
47 45 40 35 30 27 26 28 27 24 19 17 15 11 11 7 5 3 4 4 9 13 16 17 19 18 17 16 17 14 16 21 20 20 23 21 17 17 17 16 15 14 12
37 50 48 41 36 33 31 30 31 29 25 21 18 16 14 12 8 6 4 5 4 12 17 20 22 24 23 20 18 16 16 20 22 23 25 22 23 18 18 16 16 16 14
36 40 50 46 43 40 34 30 28 29 28 25 23 20 18 16 14 11 8 7 5 6 14 20 24 26 24 21 20 18 17 18 21 21 20 22 21 18 19 18 18 18 17
39 41 40 42 46 45 38 33 27 27 26 27 25 24 22 20 20 17 14 12 9 7 7 14 19 24 25 22 21 20 19 19 20 22 23 24 26 20 18 20 18 19 19
43 44 44 45 42 40 44 39 35 31 29 26 22 23 25 24 24 23 20 18 16 11 9 9 12 19 23 24 23 22 21 23 25 23 24 28 27 21 20 19 19 19 19
45 39 45 48 45 39 47 45 42 39 35 30 25 23 21 24 26 26 24 23 21 17 12 11 11 14 20 24 26 25 25 21 18 23 26 21 26 24 23 22 22 20 20
48 40 41 43 46 47 40 46 45 40 40 33 27 27 24 20 21 27 27 26 25 23 19 16 14 13 15 21 24 24 27 23 21 21 25 24 26 26 24 24 24 22 21
52 42 35 42 41 47 47 44 43 43 42 40 34 29 28 26 23 22 28 29 28 27 24 21 18 16 15 17 22 26 27 24 21 19 20 24 22 33 31 26 26 24 24
53 44 39 34 40 45 47 51 51 48 45 41 32 34 32 32 27 21 23 26 31 31 28 26 22 19 19 18 20 25 26 26 24 23 23 19 27 23 29 29 28 26 26
48 45 38 39 35 46 48 45 53 56 49 40 36 39 35 33 30 24 23 26 29 31 32 30 26 23 21 21 20 20 23 29 29 27 23 22 25 29 31 33 35 29 29
35 27 37 36 31 41 52 47 47 53 53 48 44 43 38 35 32 27 23 25 29 30 33 33 28 26 24 23 22 23 22 30 32 29 27 25 25 30 35 40 42 33 28

GFSSE_700_spd_135.txt.gz
Wind_Speed
13 15 13 7 4 4 5 4 5 8 10 11 13 14 15 15 14 13 12 13 8 5 6 7 7 10 12 13 13 11 11 10 9 7 12 17 16 16 14 11 10 11 9
12 11 11 6 5 5 5 4 5 8 10 10 10 11 12 14 13 13 12 9 5 4 5 7 8 10 11 12 12 11 10 10 8 5 6 12 6 7 14 11 10 9 8
8 10 8 6 5 4 6 5 6 8 9 9 9 9 11 12 11 11 10 7 6 6 5 6 9 10 11 10 11 11 10 9 6 3 4 6 1 11 11 10 8 7 6
7 9 8 5 2 3 4 5 6 7 8 8 9 8 9 10 9 9 8 7 7 6 6 6 8 10 10 11 11 10 8 9 6 4 6 8 10 13 12 9 7 6 5
7 12 5 1 4 4 4 3 5 6 7 7 8 9 9 8 8 8 7 7 6 7 7 9 9 10 11 11 10 10 9 9 8 8 7 9 12 11 10 9 8 8 7
10 10 4 5 5 2 2 3 4 6 7 7 7 8 7 6 7 7 6 6 7 7 7 9 10 10 10 10 10 13 11 9 12 11 11 11 10 9 9 9 8 7 6
13 8 3 2 1 1 2 2 2 5 6 6 5 6 5 7 7 7 7 7 8 8 10 10 11 10 9 10 15 10 10 10 9 11 10 10 10 9 7 8 8 8 7
16 10 3 2 1 3 2 3 2 3 5 5 5 6 7 8 7 7 7 7 9 8 10 11 13 11 12 12 13 8 10 8 9 10 10 9 8 8 8 7 7 7 6
20 14 12 5 3 4 3 3 2 2 4 6 6 7 7 8 8 7 8 8 8 8 10 15 15 14 11 13 13 10 12 10 10 12 11 10 10 9 9 8 8 6 5
24 17 16 13 7 5 5 3 3 2 3 5 5 7 7 8 9 9 8 8 8 9 9 12 17 16 13 13 10 9 10 10 11 12 12 12 11 10 9 8 8 7 5
28 23 21 17 12 10 9 6 5 5 4 4 5 6 7 8 9 9 8 8 9 9 5 9 18 17 17 16 13 12 9 9 9 13 14 13 10 10 9 8 8 6 4
32 29 26 22 17 15 14 11 9 8 7 5 5 6 6 7 7 8 7 7 10 9 6 11 18 19 21 17 16 14 12 9 9 13 12 12 11 11 11 9 8 6 4
37 35 31 27 23 19 17 15 13 11 10 8 6 7 7 6 7 6 5 7 8 8 7 12 16 16 17 12 12 12 16 15 21 16 13 11 13 14 12 11 10 9 7
40 39 37 33 29 24 21 19 17 15 13 12 9 8 8 6 6 5 4 5 8 8 8 13 16 17 16 13 15 13 18 15 20 17 17 14 14 14 14 14 12 11 10
40 43 43 39 34 31 27 23 22 19 17 15 14 11 9 8 6 5 3 4 5 9 11 13 14 14 13 14 14 14 16 14 19 19 20 17 15 16 16 16 15 13 11
35 45 43 44 42 38 34 29 26 24 20 19 19 16 13 11 8 5 3 5 3 6 11 13 14 17 17 16 15 15 15 17 22 23 23 24 19 17 17 17 15 14 13
37 39 49 38 47 46 42 35 30 29 27 24 22 21 18 15 12 8 4 3 5 2 10 15 17 18 18 18 18 16 16 18 21 20 17 20 23 21 18 16 16 16 16
43 42 45 40 42 49 46 42 36 31 30 29 27 25 24 20 17 14 9 6 4 4 3 12 18 21 22 22 20 17 18 17 19 17 22 19 25 21 22 19 18 18 16
47 47 47 51 45 43 47 46 40 35 34 32 32 29 28 25 22 19 15 13 10 7 4 5 12 18 21 25 24 22 21 19 19 16 17 21 21 23 24 20 19 20 18
54 53 51 52 51 51 42 43 44 41 40 33 33 32 30 28 26 24 22 19 16 13 9 6 6 12 17 23 25 27 24 21 20 16 20 24 26 25 26 22 21 22 20
55 58 57 53 54 57 50 51 51 47 44 36 32 30 30 29 30 28 27 25 22 19 15 13 9 8 11 17 23 24 24 23 23 19 17 23 24 23 28 27 24 22 20
57 52 61 58 55 60 57 50 48 44 46 39 35 33 31 28 27 28 29 28 26 23 21 19 15 12 11 11 17 21 24 23 22 19 17 22 21 22 24 24 25 24 23
58 54 57 61 54 58 61 53 48 42 50 46 43 38 32 30 27 24 23 28 29 27 25 23 21 19 15 14 14 18 20 21 17 19 19 16 20 21 15 19 26 25 23
49 56 48 58 55 49 59 56 52 45 51 52 46 41 37 35 32 29 26 24 29 30 29 27 25 24 21 18 17 17 18 20 20 20 20 21 19 22 25 17 28 34 31
37 46 44 54 52 45 54 60 55 49 46 50 49 44 41 37 36 32 29 26 26 28 29 30 30 29 26 23 20 19 19 19 20 20 20 22 25 23 21 28 25 24 35
32 39 33 52 46 44 44 49 54 49 49 51 46 45 44 38 40 36 33 30 28 28 30 29 31 32 30 27 24 23 21 19 20 18 22 21 18 21 22 22 25 33 34

GFSSE_700_spd_138.txt.gz
Wind_Speed
13 10 13 8 6 8 9 6 6 8 7 6 8 10 11 10 9 10 11 11 7 2 2 3 4 8 10 11 12 12 10 9 8 6 8 12 13 7 13 12 12 14 12
10 8 10 7 7 8 6 4 5 6 7 7 7 9 10 10 10 10 10 9 4 2 2 4 5 7 9 11 11 11 9 8 7 5 5 8 15 17 13 13 8 7 8
7 7 9 7 7 7 5 3 4 4 5 7 7 8 10 10 10 10 9 7 4 4 4 4 6 7 10 10 11 11 10 9 6 4 3 4 9 8 10 13 10 8 6
11 9 8 5 4 6 4 4 4 4 4 6 8 8 9 10 9 9 7 6 5 6 6 5 6 8 10 11 11 10 10 9 9 8 5 7 8 13 12 12 8 6 6
6 13 7 3 4 6 4 3 3 4 4 5 7 8 7 9 8 7 6 5 6 6 7 7 7 9 10 11 10 9 9 10 9 7 5 9 11 11 11 9 7 6 6
12 13 11 4 8 5 4 4 3 4 4 4 6 6 5 7 7 6 6 5 6 7 7 7 9 10 10 10 9 9 10 10 5 10 7 7 10 11 9 8 7 6 5
17 13 11 7 7 4 2 3 3 4 4 3 4 4 4 6 7 7 6 6 7 7 8 10 10 11 10 11 10 13 8 6 9 6 5 8 10 8 9 8 8 6 4
19 16 13 12 10 8 6 3 3 2 5 3 3 3 4 6 6 6 6 7 7 7 8 9 10 11 12 10 11 10 5 8 9 5 8 9 9 8 8 8 8 7 5
22 21 17 15 12 9 7 7 5 3 3 5 3 4 4 5 6 6 8 8 8 8 9 10 11 14 14 13 13 9 9 8 10 10 13 12 11 10 8 7 7 6 5
27 25 23 20 17 12 11 9 7 6 4 4 4 4 4 5 6 6 8 9 9 10 10 12 14 17 14 13 14 13 13 15 12 11 11 13 12 11 9 7 6 6 5
29 29 28 24 22 17 14 12 10 10 8 5 5 5 5 5 6 7 8 10 10 10 10 12 15 19 20 16 15 13 11 10 11 12 13 13 11 9 7 8 7 6 5
32 33 31 29 26 23 19 17 15 13 11 8 6 6 5 5 5 7 8 8 10 9 9 9 17 20 19 18 17 14 12 9 11 10 12 13 12 10 9 8 9 8 6
33 38 35 32 31 28 24 21 18 16 14 11 8 7 6 6 5 6 7 7 9 9 9 8 17 20 20 20 17 16 15 13 10 9 10 12 12 12 11 10 10 10 7
28 38 41 37 35 33 30 26 22 19 17 15 12 10 8 7 6 6 5 6 8 9 10 10 15 17 21 22 16 16 14 15 13 18 16 15 14 15 14 13 14 11 9
31 34 45 45 41 38 36 32 28 24 21 18 16 14 11 10 8 6 4 4 6 8 10 10 16 19 18 19 16 16 14 16 15 13 15 18 16 15 16 15 14 12 11
34 34 38 50 49 45 42 39 34 30 25 22 20 18 15 14 11 9 5 3 2 6 11 12 16 18 20 18 16 16 16 18 15 16 19 22 19 17 17 18 16 14 14
34 39 40 41 52 53 49 45 42 37 32 28 24 22 20 18 16 13 9 5 2 2 9 15 17 19 21 19 17 17 16 18 17 18 23 28 21 24 20 18 17 15 16
41 41 44 46 47 54 55 51 48 45 39 34 30 28 25 23 21 18 14 10 6 2 4 10 16 19 19 20 19 18 19 20 19 19 21 24 18 16 25 24 20 19 19
50 44 47 50 53 51 53 56 54 50 46 41 36 33 31 29 26 23 20 17 13 9 5 4 8 15 19 21 21 21 22 22 19 18 19 16 18 19 27 22 24 21 20
46 56 49 54 56 59 56 56 58 57 52 47 42 35 33 34 32 29 26 23 19 16 11 7 5 8 14 18 22 24 24 25 24 21 19 16 19 22 20 25 28 29 21
44 50 63 54 60 61 64 63 65 64 57 50 45 40 36 37 37 34 31 28 25 21 17 14 11 9 10 14 18 23 26 26 27 24 22 21 21 21 24 27 29 26 24
53 48 53 66 55 64 62 64 64 66 61 56 48 41 40 41 40 37 36 32 29 26 24 21 18 14 13 10 12 17 22 22 22 22 22 21 18 19 19 23 26 30 25
40 40 42 47 58 57 65 62 65 63 61 62 54 46 46 42 41 39 38 35 33 30 27 26 23 21 18 15 16 13 17 15 17 19 20 21 19 17 16 19 15 32 29
44 43 45 47 51 52 57 58 64 67 67 67 59 48 47 42 40 37 37 34 30 31 30 29 27 25 24 21 20 17 17 15 14 18 20 21 21 18 18 19 20 18 28
40 33 40 45 52 45 55 62 56 65 64 65 50 52 49 44 42 39 37 33 30 27 27 29 31 30 28 27 24 21 20 19 16 19 18 21 23 22 22 19 21 27 22
36 37 35 41 46 45 51 58 56 60 55 54 55 54 51 48 45 42 41 38 33 30 27 26 31 32 32 32 29 27 24 21 19 18 19 18 21 24 25 26 23 23 28

GFSSE_700_spd_141.txt.gz
Wind_Speed
10 5 11 11 7 6 8 9 7 4 4 3 4 5 5 5 6 7 8 9 7 2 2 3 4 6 9 10 10 10 11 10 7 7 5 6 6 11 11 19 10 15 15
6 8 10 10 8 7 8 8 7 5 5 4 4 5 5 5 6 8 9 8 4 2 2 2 4 6 8 10 10 10 9 8 6 5 6 4 8 6 14 12 14 10 9
8 11 9 9 7 7 7 9 8 6 6 6 4 5 6 6 6 8 8 7 3 4 3 3 5 7 8 10 10 9 8 7 5 5 4 2 3 7 7 7 7 10 8
9 10 11 9 5 4 7 8 8 6 6 7 7 5 6 6 7 8 7 5 4 4 4 4 6 7 8 9 9 8 8 7 6 8 5 2 6 10 13 11 8 5 5
10 11 12 10 7 4 7 8 7 7 6 7 7 5 5 5 6 6 5 4 5 5 5 6 7 7 8 9 8 8 8 8 8 8 6 8 8 9 10 8 7 6 5
13 15 12 11 7 8 7 7 6 6 6 5 7 5 3 4 4 4 4 4 5 6 6 7 7 9 9 9 9 8 8 9 3 6 5 10 11 9 7 5 5 6 4
16 17 14 11 9 9 9 8 6 6 5 3 4 5 3 3 3 4 4 5 5 6 8 8 9 11 10 10 9 10 10 10 11 11 8 7 8 10 10 8 6 5 3
19 19 17 14 13 11 11 9 8 7 5 5 2 5 4 2 2 3 5 5 6 6 7 9 11 12 12 12 11 8 10 7 13 16 9 11 9 8 8 7 7 5 4
22 23 21 18 17 15 12 11 11 10 8 6 5 4 4 3 3 4 5 6 7 7 8 10 11 12 14 12 12 7 6 11 8 7 11 9 7 7 8 8 6 6 6
27 27 25 22 20 19 16 14 13 12 10 8 6 6 4 4 4 4 6 7 8 8 10 12 13 15 17 15 13 12 11 12 8 8 7 4 7 8 7 6 6 6 5
25 30 30 27 24 23 20 18 15 13 12 9 7 7 7 5 4 4 6 7 9 9 11 12 15 17 19 17 15 13 13 12 9 11 10 9 11 10 8 7 6 6 5
21 27 31 31 29 26 25 22 20 18 15 12 9 7 7 6 5 4 6 7 9 10 12 13 14 17 22 18 18 17 14 13 12 14 11 12 12 12 10 8 8 7 5
24 23 29 34 33 30 28 26 25 22 19 16 13 10 9 8 7 5 5 7 9 11 12 13 12 18 21 19 19 18 17 18 12 15 11 13 14 12 9 8 8 8 6
25 27 25 31 38 36 32 31 29 27 23 20 18 14 11 10 9 7 5 6 9 11 13 14 12 16 19 22 21 18 18 19 15 17 12 9 13 12 12 11 10 10 9
24 28 31 29 37 41 39 36 34 31 28 24 22 18 15 13 11 9 6 5 8 10 13 14 13 14 19 21 22 19 17 13 15 16 15 22 18 15 14 13 13 13 12
27 29 32 35 33 41 45 43 41 37 34 30 26 23 19 16 14 11 8 6 6 9 11 13 13 16 20 21 22 17 17 14 16 17 12 13 15 17 17 15 15 15 15
27 30 34 37 39 39 45 50 48 45 41 37 31 28 25 21 18 16 12 9 6 7 9 12 14 17 19 20 21 18 17 15 17 18 13 15 17 23 26 18 18 19 18
32 38 35 40 44 46 46 48 54 52 50 44 39 34 30 26 24 20 17 13 10 7 7 10 13 17 18 21 21 19 17 16 16 16 17 19 22 23 23 26 22 18 18
37 42 47 42 47 50 51 51 52 58 57 53 47 43 37 32 29 26 23 19 16 13 8 7 9 16 19 21 23 22 20 19 19 19 20 20 19 17 19 19 26 26 23
35 39 40 43 50 50 57 56 58 55 62 61 57 52 44 39 35 32 29 26 23 19 15 10 7 9 15 20 22 22 22 23 23 21 21 20 19 17 18 19 23 26 29
43 50 43 47 50 57 55 62 60 62 59 66 65 59 51 44 41 38 34 31 28 25 21 16 14 11 10 14 18 19 21 24 24 25 23 22 20 21 21 20 22 24 28
50 56 53 46 48 57 55 58 63 62 64 62 68 66 58 48 44 42 40 37 32 31 27 23 20 17 15 13 11 13 17 18 20 22 23 22 22 21 20 20 15 18 26
53 50 42 43 47 51 67 45 52 59 60 61 64 65 65 54 47 45 42 42 36 35 32 28 25 23 20 18 15 16 16 16 14 17 20 21 21 20 19 16 17 13 22
48 45 44 43 42 42 49 56 49 52 56 65 56 61 67 60 53 47 43 44 40 38 37 32 30 28 26 24 21 20 18 16 13 14 13 18 21 22 21 18 17 16 11
48 45 45 44 36 37 40 56 48 50 52 59 61 54 63 65 57 47 47 45 44 40 38 36 33 33 30 27 26 25 22 23 20 16 16 13 19 22 23 22 19 20 21
49 38 40 39 38 39 41 49 50 46 49 59 68 62 54 64 58 50 46 46 45 38 37 34 34 33 32 32 31 29 27 27 23 22 20 22 16 19 23 25 24 24 24

GFSSE_700_spd_144.txt.gz
Wind_Speed
14 9 9 8 6 6 9 10 10 8 4 4 4 3 2 2 3 3 4 5 4 0 3 4 4 6 6 7 9 8 9 8 9 7 6 9 3 5 1 8 13 10 12
15 7 11 9 7 6 7 10 10 9 6 5 4 4 3 2 4 4 5 5 3 2 3 4 5 6 7 8 9 8 8 7 6 3 5 4 7 2 4 5 12 14 13
16 12 11 10 9 7 5 6 8 9 7 7 5 5 5 4 4 5 6 5 3 3 4 4 5 6 6 8 8 7 7 6 5 3 1 3 2 3 8 11 7 13 13
10 12 10 10 9 8 5 6 7 8 7 8 7 5 5 4 4 5 5 5 2 4 5 5 4 5 6 7 7 6 6 6 6 6 1 3 5 12 13 16 11 11 11
9 10 11 11 10 8 8 9 7 7 7 8 7 4 4 4 3 3 3 4 3 4 5 4 4 6 7 7 7 6 7 8 7 7 1 3 5 8 10 13 8 9 9
14 12 14 14 12 9 10 10 9 8 8 7 6 4 3 4 2 2 3 3 4 5 4 5 6 6 7 7 8 7 8 9 4 6 1 8 8 6 7 8 7 9 7
16 15 16 15 12 9 11 11 11 10 8 7 6 6 4 2 3 3 3 4 4 5 6 6 7 8 8 9 9 8 9 9 8 9 8 10 9 11 7 7 8 7 4
16 16 16 17 14 12 12 13 12 12 10 9 7 6 5 5 3 4 4 5 5 6 6 8 8 9 10 11 10 10 9 8 11 14 13 12 11 8 5 7 7 5 2
17 19 19 19 19 15 16 15 14 14 12 10 10 8 6 5 6 5 5 6 7 7 7 9 8 10 12 13 12 10 10 12 14 17 12 13 13 7 7 6 4 3 2
22 21 23 24 24 20 19 18 16 15 14 13 11 9 8 6 6 7 6 6 8 8 9 11 11 12 14 13 13 11 10 12 10 2 4 6 11 8 7 6 5 4 3
21 24 22 27 28 26 23 21 20 17 16 14 12 11 9 7 7 7 8 8 8 9 10 12 13 14 15 17 16 15 12 11 16 13 7 7 9 9 9 6 5 4 4
16 16 23 23 29 29 27 26 23 20 20 18 15 13 11 9 8 8 8 9 9 10 11 12 14 14 16 18 18 18 14 17 18 9 6 8 8 9 8 7 6 5 5
17 21 16 17 24 30 31 29 27 26 24 22 19 16 14 12 11 11 8 8 9 10 11 12 14 13 15 16 18 17 18 15 13 13 10 9 11 9 8 8 7 6 6
20 21 23 22 20 23 32 34 32 30 30 26 24 22 18 16 14 13 10 9 8 9 11 12 12 11 13 16 16 18 16 15 13 14 7 10 13 11 10 8 8 8 8
18 22 24 25 26 27 27 32 35 34 35 30 29 24 23 20 17 15 13 10 8 8 11 11 12 11 14 18 16 17 17 15 17 13 12 12 9 10 10 14 12 11 11
18 19 26 29 29 28 31 32 33 40 38 38 35 30 27 25 22 19 16 13 10 9 7 9 10 11 14 18 18 19 16 15 14 16 13 16 11 14 13 13 13 13 13
19 27 27 32 35 37 38 39 39 37 45 44 41 37 33 29 26 23 20 16 11 9 8 7 10 10 15 18 18 18 17 16 14 14 14 6 6 8 14 18 15 15 17
31 35 36 33 34 38 41 43 45 47 38 51 48 44 39 35 31 29 25 20 15 11 8 7 10 11 14 18 18 19 17 16 16 15 12 11 11 10 17 20 20 23 20
34 34 36 40 43 41 44 49 49 51 51 42 56 52 47 42 38 33 29 25 21 17 12 9 9 10 14 17 19 21 20 17 17 16 16 15 15 13 14 15 19 21 24
36 38 41 37 40 45 49 49 55 54 56 56 46 60 56 50 45 40 33 31 27 24 19 14 10 8 12 15 20 21 18 19 20 20 20 18 17 16 14 12 14 16 24
36 39 41 45 42 45 51 54 60 60 58 61 60 51 64 58 52 48 41 37 34 30 25 19 15 12 10 16 19 18 21 22 22 21 22 21 20 18 17 17 17 20 21
38 40 46 49 55 47 49 56 58 69 65 61 62 59 48 66 60 55 49 44 40 35 33 26 22 19 15 15 11 12 16 17 17 19 21 22 21 20 19 19 18 16 18
42 46 49 50 51 47 41 45 50 58 68 65 62 66 66 53 68 62 56 51 46 40 38 32 27 24 21 18 16 14 14 12 13 16 18 20 21 20 18 19 16 16 19
47 52 53 56 56 47 38 42 46 57 62 63 62 63 72 71 72 76 64 56 52 47 43 39 32 28 27 24 22 19 17 16 15 11 10 12 14 16 18 19 17 15 16
51 54 55 57 53 39 33 36 42 47 55 63 63 57 62 74 71 71 67 59 57 52 46 43 38 34 31 28 25 23 21 21 21 18 14 11 12 12 14 17 17 19 18
49 56 54 52 43 36 38 40 42 47 50 62 64 54 59 71 72 50 65 60 61 55 49 46 41 36 34 32 29 27 27 25 23 23 23 19 18 15 15 14 16 18 20